Location: *
(51.1248°S, 108.4023°W)
Time: 05:01:51
(UTC+00:00)

CZ-4C R/B - Pass Details

Date: 15 June 2021
Orbit: 405 x 485 km, 97.7° (Epoch: 31 July)

Event Time Altitude Azimuth Distance (km) Brightness Sun altitude
Rises 13:52:19 0° 176° (S) 2,402 6.4 -12.3°
Reaches altitude 10° 13:54:31 10° 187° (S) 1,522 5.3 -12.0°
Maximum altitude 13:57:18 27° 247° (WSW) 844 3.7 -11.6°
Drops below altitude 10° 14:00:04 10° 307° (NW) 1,495 5.3 -11.2°
Sets 14:02:12 0° 319° (NW) 2,349 6.4 -10.9°
